This is the latest recevied weather packets stored in our database for station/object VE2XOX. If no packets are shown the sender has not sent any weather packets the latest 10 day(s).
| Time | Temp. | Humidity | Pressure | Rain* | Wind** | Luminosity | Snow |
|---|---|---|---|---|---|---|---|
| 1778085313 | 6.67° C | 89% | 1008.3 hPa | 9.91 mm | - | - | - |
| 1778085017 | 6.67° C | 89% | 1008.4 hPa | 9.91 mm | - | - | - |
| 1778084415 | 6.67° C | 88% | 1008.5 hPa | 10.92 mm | - | - | - |
| 1778081724 | 6.67° C | 89% | 1008.8 hPa | 14.99 mm | - | - | - |
| 1778078124 | 7.22° C | 89% | 1008.7 hPa | 7.11 mm | - | - | - |
| 1778077829 | 7.22° C | 90% | 1008.7 hPa | 7.11 mm | - | - | - |
| 1778077227 | 7.22° C | 89% | 1008.7 hPa | 7.11 mm | - | - | - |
| 1778076912 | 7.22° C | 89% | 1008.7 hPa | 6.1 mm | - | - | - |
| 1778076613 | 7.22° C | 89% | 1008.7 hPa | 7.11 mm | - | - | - |
| 1778076026 | 7.22° C | 89% | 1008.6 hPa | 6.1 mm | - | - | - |
| 1778074528 | 7.22° C | 89% | 1008.6 hPa | 7.11 mm | - | - | - |
| 1778073924 | 7.22° C | 90% | 1008.6 hPa | 7.11 mm | - | - | - |
| 1778073626 | 7.22° C | 89% | 1008.6 hPa | 7.11 mm | - | - | - |
| 1778072731 | 7.22° C | 89% | 1008.7 hPa | 7.11 mm | - | - | - |
| 1778070913 | 7.22° C | 88% | 1008.5 hPa | 5.08 mm | - | - | - |
| 1778070323 | 7.78° C | 87% | 1008.5 hPa | 4.06 mm | - | - | - |
| 1778070013 | 7.78° C | 87% | 1008.5 hPa | 3.05 mm | - | - | - |
| 1778069716 | 7.78° C | 86% | 1008.5 hPa | 4.06 mm | - | - | - |
| 1778069129 | 7.78° C | 85% | 1008.4 hPa | 3.05 mm | - | - | - |
| 1778068525 | 8.33° C | 84% | 1008.5 hPa | 2.03 mm | - | - | - |
| 1778068227 | 8.33° C | 83% | 1008.5 hPa | 2.03 mm | - | - | - |
| 1778067930 | 8.89° C | 84% | 1008.5 hPa | 1.02 mm | - | - | - |
| 1778067327 | 8.89° C | 85% | 1008.2 hPa | 1.02 mm | - | - | - |
| 1778067014 | 8.89° C | 86% | 1008.1 hPa | 1.02 mm | - | - | - |
| 1778066726 | 9.44° C | 86% | 1008 hPa | 1.02 mm | - | - | - |
* Rain latest hour (hover to see other rain measurements)
** Current wind speed in m/s (hover to see current wind gust speed)